Location: Ar Ranvel
(48.3000°N, 4.8833°W)
Time: 10:25:56
(UTC+00:00)

Cosmos 2237 Rocket - Pass Details

Date: 16 June 2021
Orbit: 835 x 850 km, 71.0° (Epoch: 27 July)

Event Time Altitude Azimuth Distance (km) Brightness Sun altitude
Exits shadow 23:23:46 29° 159° (SSE) 1,500 2.9 -17.2°
Maximum altitude 23:26:06 43° 109° (ESE) 1,154 2.7 -17.3°
Drops below altitude 10° 23:31:24 10° 39° (NE) 2,456 5.1 -17.5°
Sets 23:33:56 0° 33° (NNE) 3,395 6.1 -17.6°
